GW6661 Weather Reports


time (UTC)temp
C
wind
direction
speed
KPH
gust
KPH
rain 1hr
cm
rain 24hr
cm
rain mn
cm
humidity
%
barometer
mb
20260906113659 22 32 3.2 6.4 0.00 0.00 0.00 98 1013.3
20260906113142 22 35 3.2 4.8 0.00 0.00 0.00 99 1013.2
20260906112641 22 48 1.6 4.8 0.00 0.00 0.00 99 1013.1
20260906112141 22 36 3.2 4.8 0.00 0.00 0.00 99 1013.1
20260906111641 22 54 4.8 4.8 0.00 0.00 0.00 99 1013.0
20260906111141 22 44 4.8 4.8 0.00 0.00 0.00 99 1012.8
20260906110641 22 54 3.2 6.4 0.00 0.00 0.00 99 1012.9
20260906110200 22 38 3.2 4.8 0.00 0.00 0.00 99 1012.8
20260906105659 22 39 1.6 4.8 0.00 0.00 0.00 99 1012.8
20260906105140 22 45 3.2 4.8 0.00 0.00 0.00 99 1012.4
20260906104700 22 44 4.8 9.7 0.00 0.00 0.00 99 1012.6
20260906104140 22 18 6.4 8.0 0.00 0.00 0.00 99 1012.4
20260906103640 21 35 4.8 8.0 0.00 0.00 0.00 99 1012.6
20260906103141 21 28 4.8 6.4 0.00 0.00 0.00 99 1012.7
20260906102641 21 31 4.8 4.8 0.00 0.00 0.00 99 1012.6
20260906102141 21 35 3.2 4.8 0.00 0.00 0.00 99 1012.6
20260906101700 21 38 3.2 6.4 0.00 0.00 0.00 99 1012.6
20260906101141 21 39 3.2 4.8 0.00 0.00 0.00 99 1012.3
20260906100641 21 35 3.2 4.8 0.00 0.00 0.00 99 1012.2
20260906100140 21 46 3.2 4.8 0.00 0.00 0.00 99 1012.3
20260906095640 21 50 0.0 3.2 0.00 0.00 0.00 99 1012.4
20260906095141 21 40 0.0 1.6 0.00 0.00 0.00 99 1012.2
20260906094641 21 34 0.0 1.6 0.00 0.00 0.00 99 1012.4
20260906094141 21 13 0.0 3.2 0.00 0.00 0.00 99 1012.2
20260906093641 21 50 0.0 0.0 0.00 0.00 0.00 99 1012.2
20260906093141 21 50 0.0 0.0 0.00 0.00 0.00 99 1012.1
20260906092641 21 164 0.0 1.6 0.00 0.00 0.00 99 1011.9
20260906092141 21 147 0.0 0.0 0.00 0.00 0.00 99 1011.9
20260906091641 21 15 0.0 1.6 0.00 0.00 0.00 99 1011.7
20260906091141 21 11 0.0 0.0 0.00 0.00 0.00 99 1011.5
20260906090641 21 17 0.0 1.6 0.00 0.00 0.00 99 1011.8
20260906090141 21 27 0.0 3.2 0.00 0.00 0.00 99 1011.5
20260906085640 20 29 1.6 4.8 0.00 0.00 0.00 99 1011.7
20260906085141 20 63 1.6 1.6 0.00 0.00 0.00 99 1011.6
20260906084640 20 48 1.6 3.2 0.00 0.00 0.00 99 1011.8
20260906084140 20 342 0.0 1.6 0.00 0.00 0.00 99 1011.5
20260906083640 20 69 3.2 4.8 0.00 0.00 0.00 99 1011.6
20260906083141 20 78 1.6 3.2 0.00 0.00 0.00 98 1011.6
20260906082641 20 70 3.2 4.8 0.00 0.00 0.00 99 1011.6
20260906082141 20 71 1.6 4.8 0.00 0.00 0.00 99 1011.7
20260906081641 20 62 1.6 3.2 0.00 0.00 0.00 98 1011.4
20260906081201 20 38 3.2 3.2 0.00 0.00 0.00 98 1011.4
20260906080641 20 74 1.6 1.6 0.00 0.00 0.00 98 1011.5
20260906080140 20 25 0.0 1.6 0.00 0.00 0.00 98 1011.2
20260906075701 20 56 1.6 3.2 0.00 0.00 0.00 98 1011.1
20260906075141 20 45 0.0 0.0 0.00 0.00 0.00 98 1011.0
20260906074640 20 89 0.0 0.0 0.00 0.00 0.00 98 1011.2
20260906074140 20 32 0.0 0.0 0.00 0.00 0.00 98 1011.1
20260906073640 20 32 0.0 0.0 0.00 0.00 0.00 98 1011.1
20260906073141 20 55 0.0 1.6 0.00 0.00 0.00 98 1011.3
20260906072641 20 89 1.6 1.6 0.00 0.00 0.00 98 1011.2
20260906072141 20 309 0.0 0.0 0.00 0.00 0.00 98 1011.1
20260906071700 20 29 0.0 0.0 0.00 0.00 0.00 98 1011.1
20260906071141 20 32 0.0 3.2 0.00 0.00 0.00 98 1011.2
20260906070641 20 89 0.0 0.0 0.00 0.00 0.00 98 1011.3
20260906070142 20 54 0.0 1.6 0.00 0.00 0.00 98 1011.2
20260906065641 20 37 0.0 1.6 0.00 0.00 0.00 98 1011.4
20260906065200 20 42 0.0 1.6 0.00 0.00 0.00 98 1011.3
20260906064642 20 32 1.6 1.6 0.00 0.00 0.00 98 1011.4
20260906064141 20 52 0.0 1.6 0.00 0.00 0.00 98 1011.3
20260906063641 20 40 0.0 1.6 0.00 0.00 0.00 98 1011.5
20260906063141 20 49 1.6 1.6 0.00 0.00 0.00 98 1011.8
20260906062700 20 50 0.0 0.0 0.00 0.00 0.00 98 1011.5
20260906062141 20 50 0.0 0.0 0.00 0.00 0.00 98 1011.4
20260906061641 20 48 0.0 0.0 0.00 0.00 0.00 98 1011.4
20260906061141 20 66 0.0 0.0 0.00 0.00 0.00 98 1011.4
20260906060642 20 32 0.0 0.0 0.00 0.00 0.00 98 1011.4
20260906060141 20 73 0.0 1.6 0.00 0.00 0.00 98 1011.4
20260906055640 20 55 1.6 1.6 0.00 0.00 0.00 98 1011.6
20260906055141 20 92 1.6 1.6 0.00 0.00 0.00 98 1011.8
20260906054641 20 55 0.0 1.6 0.00 0.00 0.00 98 1011.8
20260906054140 20 50 0.0 0.0 0.00 0.00 0.00 98 1011.8
20260906053700 20 52 0.0 1.6 0.00 0.00 0.00 98 1011.8
20260906053142 20 46 1.6 3.2 0.00 0.00 0.00 98 1012.0
20260906052641 20 48 1.6 3.2 0.00 0.00 0.00 98 1012.0
20260906052141 20 48 1.6 1.6 0.00 0.00 0.00 98 1012.0
20260906051719 20 315 0.0 0.0 0.00 0.00 0.00 98 1012.0
20260906051142 20 44 0.0 0.0 0.00 0.00 0.00 98 1012.2
20260906050641 20 42 1.6 3.2 0.00 0.00 0.00 98 1012.2
20260906050140 20 345 0.0 1.6 0.00 0.00 0.00 98 1012.3
20260906045641 21 50 0.0 0.0 0.00 0.00 0.00 98 1012.1
20260906045159 21 38 0.0 0.0 0.00 0.00 0.00 98 1012.3
20260906044641 21 34 1.6 3.2 0.00 0.00 0.00 98 1012.4
20260906044159 21 31 3.2 3.2 0.00 0.00 0.00 98 1012.4
20260906043640 21 98 0.0 0.0 0.00 0.00 0.00 98 1012.7
20260906043141 21 123 3.2 3.2 0.00 0.00 0.00 98 1012.5
20260906042641 21 6 0.0 1.6 0.00 0.00 0.00 98 1012.6
20260906042141 21 37 0.0 0.0 0.00 0.00 0.00 98 1012.6
20260906041641 21 37 0.0 3.2 0.00 0.00 0.00 98 1012.6
20260906041141 21 121 0.0 1.6 0.00 0.00 0.00 98 1012.5
20260906040641 21 62 0.0 1.6 0.00 0.00 0.00 98 1012.6
20260906040140 21 37 0.0 0.0 0.00 0.00 0.00 98 1012.7
20260906035640 21 67 0.0 1.6 0.00 0.00 0.28 98 1012.8
20260906035159 21 66 0.0 0.0 0.00 0.00 0.28 98 1012.7
20260906034640 21 164 0.0 0.0 0.00 0.00 0.28 98 1012.7
20260906034140 21 173 0.0 0.0 0.00 0.00 0.28 98 1012.7
20260906033659 21 299 0.0 0.0 0.00 0.00 0.28 98 1012.6
20260906033141 21 299 0.0 0.0 0.00 0.00 0.28 98 1012.8
20260906032700 21 180 0.0 0.0 0.00 0.00 0.28 98 1012.9
20260906032141 21 160 0.0 1.6 0.00 0.00 0.28 98 1012.5
20260906031641 21 100 1.6 1.6 0.00 0.00 0.28 98 1012.5
20260906031141 21 309 0.0 0.0 0.00 0.00 0.28 98 1012.7
20260906030641 21 309 0.0 0.0 0.00 0.00 0.28 98 1012.4
20260906030140 21 37 0.0 0.0 0.00 0.00 0.28 98 1012.5
20260906025659 21 37 0.0 0.0 0.00 0.00 0.28 98 1012.6
20260906025140 21 37 0.0 1.6 0.00 0.00 0.28 98 1012.5
20260906024640 21 47 1.6 1.6 0.00 0.00 0.28 98 1012.1
20260906024140 21 101 1.6 1.6 0.00 0.00 0.28 98 1012.3
20260906023659 21 242 0.0 0.0 0.00 0.00 0.28 98 1012.3
20260906023141 21 345 0.0 0.0 0.00 0.00 0.28 98 1012.1
20260906022700 21 212 0.0 0.0 0.00 0.00 0.28 98 1012.1
20260906022141 21 217 0.0 1.6 0.00 0.00 0.28 98 1012.2
20260906021641 21 217 0.0 1.6 0.00 0.00 0.28 97 1012.2
20260906021141 21 157 0.0 0.0 0.00 0.00 0.28 97 1012.1
20260906020641 21 314 0.0 0.0 0.00 0.00 0.28 97 1012.2
20260906020140 21 336 0.0 0.0 0.00 0.00 0.28 97 1012.0
20260906015640 21 37 0.0 1.6 0.00 0.00 0.28 97 1012.0
20260906015140 21 309 0.0 1.6 0.00 0.00 0.28 97 1011.9
20260906014640 21 2 1.6 1.6 0.00 0.00 0.28 97 1011.9
20260906014140 21 269 0.0 1.6 0.00 0.00 0.28 97 1012.0
20260906013640 21 87 0.0 1.6 0.00 0.00 0.28 97 1012.0
20260906013141 21 40 0.0 1.6 0.00 0.00 0.28 97 1012.1
20260906012641 21 77 0.0 3.2 0.00 0.00 0.28 97 1012.1
20260906012141 21 297 0.0 1.6 0.00 0.00 0.28 97 1012.0
20260906011641 21 309 0.0 0.0 0.00 0.00 0.28 97 1012.1
20260906011141 21 297 0.0 0.0 0.00 0.00 0.28 97 1012.0
20260906010641 22 89 0.0 4.8 0.00 0.00 0.28 97 1011.9
20260906010200 22 202 0.0 0.0 0.00 0.00 0.28 97 1012.0
20260906005641 22 202 0.0 0.0 0.00 0.00 0.28 97 1011.7
20260906005141 22 89 0.0 1.6 0.00 0.00 0.28 97 1011.5
20260906004641 22 59 1.6 1.6 0.00 0.00 0.28 97 1011.4
20260906004141 22 0 0.0 1.6 0.00 0.00 0.28 97 1011.5
20260906003641 22 230 0.0 1.6 0.00 0.00 0.28 97 1011.6
20260906003200 22 66 0.0 0.0 0.00 0.00 0.28 96 1011.5
20260906002641 22 40 0.0 1.6 0.00 0.00 0.28 96 1011.2
20260906002141 22 19 0.0 0.0 0.00 0.00 0.28 96 1011.1
20260906001641 22 112 0.0 1.6 0.00 0.00 0.28 96 1011.2
20260906001141 22 169 0.0 0.0 0.00 0.00 0.28 96 1010.9
20260906000641 22 322 0.0 0.0 0.00 0.00 0.28 96 1011.1
20260906000200 22 322 0.0 0.0 0.00 0.00 0.28 96 1011.0
20260905235640 22 211 0.0 1.6 0.00 0.00 0.28 96 1010.9
20260905235141 22 132 0.0 1.6 0.00 0.00 0.28 95 1011.1
20260905234641 22 309 0.0 0.0 0.00 0.00 0.28 95 1010.9
20260905234140 23 309 0.0 0.0 0.00 0.00 0.28 95 1010.7
20260905233641 23 350 0.0 1.6 0.00 0.00 0.28 95 1010.7
20260905233141 23 62 0.0 0.0 0.00 0.00 0.28 95 1010.8
20260905232641 23 353 0.0 0.0 0.00 0.00 0.28 95 1010.3
20260905232141 23 59 0.0 1.6 0.00 0.00 0.28 95 1010.7
20260905231641 23 93 1.6 1.6 0.00 0.00 0.28 95 1010.6
20260905231141 23 89 0.0 0.0 0.00 0.00 0.28 95 1010.4
20260905230641 23 89 0.0 1.6 0.00 0.00 0.28 94 1010.1
20260905230140 23 60 0.0 1.6 0.00 0.00 0.28 95 1010.0
20260905225640 23 129 0.0 1.6 0.00 0.00 0.28 95 1010.0
20260905225141 23 269 0.0 1.6 0.00 0.00 0.28 94 1010.1
20260905224659 23 76 0.0 1.6 0.00 0.00 0.28 94 1010.0
20260905224141 23 78 1.6 1.6 0.00 0.00 0.28 95 1010.1
20260905223659 23 315 0.0 0.0 0.00 0.00 0.28 95 1009.9
20260905223141 23 112 3.2 3.2 0.00 0.00 0.28 95 1010.0
20260905222641 23 333 0.0 0.0 0.00 0.00 0.28 95 1010.0
20260905222141 23 44 0.0 1.6 0.00 0.00 0.28 96 1010.2
20260905221700 23 119 0.0 1.6 0.00 0.00 0.28 96 1010.4
20260905221142 23 130 0.0 1.6 0.00 0.00 0.28 96 1010.4
20260905220641 23 142 0.0 0.0 0.00 0.00 0.28 96 1010.6
20260905220140 23 149 0.0 1.6 0.00 0.00 0.28 96 1010.8
20260905215640 23 44 0.0 1.6 0.00 0.00 0.28 96 1010.9
20260905215140 23 209 0.0 1.6 0.00 0.00 0.28 96 1011.1
20260905214640 23 188 1.6 1.6 0.00 0.00 0.28 96 1011.4
20260905214159 23 62 0.0 3.2 0.00 0.00 0.28 96 1011.4
20260905213640 23 10 1.6 1.6 0.00 0.03 0.28 96 1010.8
20260905213141 23 279 1.6 3.2 0.00 0.03 0.28 96 1011.1
20260905212641 23 263 1.6 1.6 0.00 0.03 0.28 96 1011.0
20260905212141 23 265 1.6 3.2 0.00 0.03 0.28 96 1011.1
20260905211641 23 324 1.6 1.6 0.00 0.03 0.28 96 1011.0
20260905211141 23 269 0.0 3.2 0.00 0.03 0.28 96 1010.6
20260905210641 22 290 0.0 1.6 0.05 0.05 0.28 96 1011.0
20260905210140 22 111 1.6 3.2 0.05 0.10 0.28 96 1010.9
20260905205640 22 214 0.0 1.6 0.00 0.20 0.28 96 1011.0
20260905205140 22 209 1.6 3.2 0.00 0.28 0.28 95 1010.8
20260905204659 22 17 0.0 1.6 0.05 0.28 0.28 95 1010.5
20260905204140 22 305 1.6 3.2 0.05 0.28 0.28 95 1010.4
20260905203640 22 286 1.6 1.6 0.05 0.28 0.28 94 1010.1
20260905203141 22 17 0.0 3.2 0.05 0.28 0.28 94 1010.2
20260905202641 22 0 0.0 4.8 0.00 0.25 0.25 93 1010.2
20260905202141 23 58 6.4 6.4 0.00 0.25 0.25 93 1010.1
20260905201641 23 193 0.0 3.2 0.18 0.25 0.25 90 1009.8
20260905201141 23 155 3.2 4.8 0.71 0.25 0.25 90 1009.9
20260905200641 24 220 1.6 8.0 1.27 0.23 0.23 84 1009.6
20260905200141 26 55 9.7 11.3 0.71 0.13 0.13 79 1010.8
20260905195641 28 63 4.8 17.7 0.05 0.00 0.00 71 1010.7
20260905195141 31 40 17.7 22.5 0.00 0.00 0.00 59 1010.5
20260905194641 33 39 6.4 11.3 0.00 0.00 0.00 56 1009.9
20260905194141 33 25 1.6 3.2 0.00 0.00 0.00 54 1009.7
20260905193641 34 70 0.0 4.8 0.00 0.00 0.00 52 1009.8
20260905193141 35 235 0.0 1.6 0.00 0.00 0.00 52 1009.6
20260905192641 35 332 3.2 4.8 0.00 0.00 0.00 49 1009.3
20260905192142 35 274 1.6 1.6 0.00 0.00 0.00 47 1009.4
20260905191641 35 175 0.0 4.8 0.00 0.00 0.00 47 1009.3
20260905191141 35 330 3.2 3.2 0.00 0.00 0.00 47 1009.5
20260905190641 36 56 0.0 3.2 0.00 0.00 0.00 47 1009.0
20260905190141 36 223 1.6 4.8 0.00 0.00 0.00 44 1008.9
20260905185641 36 331 3.2 3.2 0.00 0.00 0.00 45 1008.6
20260905185200 37 75 3.2 4.8 0.00 0.00 0.00 42 1008.8
20260905184641 37 259 3.2 4.8 0.00 0.00 0.00 45 1009.1
20260905184141 36 331 4.8 4.8 0.00 0.00 0.00 45 1009.2
20260905183641 37 323 0.0 3.2 0.00 0.00 0.00 47 1009.5
20260905183141 36 254 4.8 8.0 0.00 0.00 0.00 45 1009.6
20260905182641 36 61 1.6 4.8 0.00 0.00 0.00 47 1009.5
20260905182140 36 79 3.2 4.8 0.00 0.00 0.00 49 1009.5
20260905181640 36 328 4.8 6.4 0.00 0.00 0.00 49 1009.8
20260905181141 36 36 3.2 6.4 0.00 0.00 0.00 46 1009.9
20260905180641 36 165 1.6 6.4 0.00 0.00 0.00 48 1009.7
20260905180141 36 177 1.6 4.8 0.00 0.00 0.00 47 1009.9
20260905175641 36 343 3.2 4.8 0.00 0.00 0.00 51 1010.2
20260905175200 36 265 0.0 3.2 0.00 0.00 0.00 48 1010.2
20260905174641 36 334 4.8 4.8 0.00 0.00 0.00 48 1010.3
20260905174200 36 133 0.0 4.8 0.00 0.00 0.00 47 1010.6
20260905173641 36 229 4.8 8.0 0.00 0.00 0.00 47 1010.6
20260905173141 36 258 0.0 6.4 0.00 0.00 0.00 47 1010.9
20260905172640 36 68 1.6 6.4 0.00 0.00 0.00 47 1010.8
20260905172140 36 216 6.4 9.7 0.00 0.00 0.00 48 1010.9
20260905171659 36 66 0.0 6.4 0.00 0.00 0.00 49 1011.2
20260905171141 36 269 0.0 6.4 0.00 0.00 0.00 50 1011.1
20260905170659 36 64 1.6 4.8 0.00 0.00 0.00 51 1011.1
20260905170141 36 279 3.2 3.2 0.00 0.00 0.00 49 1011.2
20260905165641 35 206 0.0 1.6 0.00 0.00 0.00 52 1011.4
20260905165141 35 35 4.8 4.8 0.00 0.00 0.00 51 1011.7
20260905164719 35 328 1.6 8.0 0.00 0.00 0.00 52 1011.5
20260905164141 35 242 4.8 4.8 0.00 0.00 0.00 53 1011.5
20260905163700 35 321 0.0 6.4 0.00 0.00 0.00 52 1011.6
20260905163220 35 237 0.0 4.8 0.00 0.00 0.00 53 1011.5
20260905162641 34 357 0.0 8.0 0.00 0.00 0.00 52 1011.7
20260905162141 34 343 3.2 4.8 0.00 0.00 0.00 53 1011.7
20260905161641 34 48 3.2 6.4 0.00 0.00 0.00 52 1011.9
20260905161142 35 330 1.6 4.8 0.00 0.00 0.00 51 1012.1
20260905160641 35 340 0.0 4.8 0.00 0.00 0.00 50 1012.1
20260905160141 35 148 1.6 4.8 0.00 0.00 0.00 51 1012.0
20260905155641 35 299 1.6 4.8 0.00 0.00 0.00 52 1011.9
20260905155141 34 278 0.0 1.6 0.00 0.00 0.00 53 1012.2
20260905154641 34 70 1.6 3.2 0.00 0.00 0.00 53 1012.1
20260905154141 33 230 0.0 4.8 0.00 0.00 0.00 55 1012.3
20260905153641 33 242 0.0 6.4 0.00 0.00 0.00 54 1012.4
20260905153141 33 329 3.2 6.4 0.00 0.00 0.00 54 1012.7
20260905152641 33 172 1.6 4.8 0.00 0.00 0.00 54 1012.5
20260905152141 32 58 0.0 4.8 0.00 0.00 0.00 56 1012.7
20260905151641 32 34 0.0 4.8 0.00 0.00 0.00 56 1012.6
20260905151141 33 52 3.2 3.2 0.00 0.00 0.00 55 1012.6
20260905150642 33 249 0.0 4.8 0.00 0.00 0.00 56 1012.8
20260905150140 32 248 0.0 4.8 0.00 0.00 0.00 57 1012.7
20260905145640 32 224 4.8 6.4 0.00 0.00 0.00 58 1012.7
20260905145141 32 253 1.6 4.8 0.00 0.00 0.00 57 1012.7
20260905144640 32 203 6.4 6.4 0.00 0.00 0.00 58 1012.6
20260905144140 32 281 3.2 4.8 0.00 0.00 0.00 57 1012.6
20260905143640 32 333 1.6 4.8 0.00 0.00 0.00 59 1012.7
20260905143141 31 307 1.6 4.8 0.00 0.00 0.00 60 1012.7
20260905142641 31 39 0.0 4.8 0.00 0.00 0.00 63 1012.7
20260905142141 30 5 0.0 4.8 0.00 0.00 0.00 63 1012.7
20260905141641 30 166 0.0 4.8 0.00 0.00 0.00 67 1012.9
20260905141141 30 58 1.6 6.4 0.00 0.00 0.00 67 1012.9
20260905140641 30 82 1.6 3.2 0.00 0.00 0.00 69 1012.7
20260905140140 29 12 1.6 4.8 0.00 0.00 0.00 70 1012.8
20260905135641 29 235 0.0 4.8 0.00 0.00 0.00 70 1012.7
20260905135200 28 289 3.2 6.4 0.00 0.00 0.00 70 1012.6
20260905134700 28 250 0.0 3.2 0.00 0.00 0.00 72 1012.9
20260905134140 28 255 0.0 1.6 0.00 0.00 0.00 74 1012.7
20260905133640 28 224 0.0 4.8 0.00 0.00 0.00 75 1012.7
20260905133200 28 291 0.0 3.2 0.00 0.00 0.00 75 1012.7
20260905132641 27 241 1.6 4.8 0.00 0.00 0.00 77 1012.8
20260905132141 27 205 0.0 0.0 0.00 0.00 0.00 79 1012.9
20260905131641 27 54 1.6 3.2 0.00 0.00 0.00 80 1013.0
20260905131141 27 56 0.0 3.2 0.00 0.00 0.00 80 1012.8
20260905130700 27 123 0.0 3.2 0.00 0.00 0.00 80 1012.9
20260905130140 26 14 3.2 3.2 0.00 0.00 0.00 81 1013.1
20260905125640 26 202 1.6 3.2 0.00 0.00 0.00 84 1013.4
20260905125141 26 164 0.0 3.2 0.00 0.00 0.00 84 1013.2
20260905124720 26 136 1.6 3.2 0.00 0.00 0.00 84 1013.4
20260905124140 26 350 3.2 3.2 0.00 0.00 0.00 85 1013.3
20260905123641 26 96 1.6 1.6 0.00 0.00 0.00 86 1013.1
20260905123141 25 322 3.2 3.2 0.00 0.00 0.00 87 1013.2
20260905122642 25 74 0.0 3.2 0.00 0.00 0.00 88 1013.1
20260905122141 25 79 1.6 6.4 0.00 0.00 0.00 89 1013.4
20260905121642 25 18 1.6 3.2 0.00 0.00 0.00 91 1013.2
20260905121141 24 91 1.6 3.2 0.00 0.00 0.00 92 1013.1
20260905120641 24 86 0.0 1.6 0.00 0.00 0.00 92 1012.9
20260905120159 24 124 0.0 3.2 0.00 0.00 0.00 93 1013.3
20260905115640 23 220 0.0 1.6 0.00 0.00 0.00 93 1013.1
20260905115237 23 238 0.0 1.6 0.00 0.00 0.00 94 1013.2
20260905114640 23 315 0.0 3.2 0.00 0.00 0.00 94 1013.0
20260905114140 23 73 0.0 1.6 0.00 0.00 0.00 94 1013.0